Project,Study,Ord_Occ,Event_Num,Cast_ID,Date_Time_UTC,Date_Time_PST,Lat_Dec,Lon_Dec,Sta_ID,Line,Sta,Depth,Pressure,PrQ,Temp1,Temp1Q,Temp2,Temp2Q,TempAve,Salt1,Salt1Q,Salt1_Corr,Salt2,Salt2Q,Salt2_Corr,SaltAve_Corr,Ox1,Ox1Q,Ox1_CruiseCorr,Ox1_StaCorr,Ox2,Ox2Q,Ox2_CruiseCorr,Ox2_StaCorr,OxAve_StaCorr,Ox1uM,Ox1uM_CruiseCorr,Ox1uM_StaCorr,Ox2uM,Ox2uM_CruiseCorr,Ox2uM_StaCorr,OxAveuM_StaCorr,FluorV,FluorQ,EstChl_CruiseCorr,EstChl_StaCorr,ISUSV,ISUSQ,EstNO3_CruiseCorr,EstNO3_StaCorr,SigThetaTS1,SigThetaTS1Q,SigThetaTS2,SigThetaTS2Q,BAT,XMiss,TransQ,pH,pHQ,SPAR,SPARQ,PAR,PARQ,PoT1,PoT2,DynHt,SVA,OxSat1,OxSat2,BTL_Depth,BTL_Temp,SaltB,OxB,OxBuM,Chl-a,Phaeo,NO3,NO2,NH4,PO4,SIL
CalCOFI,2105SH,028,,2105_028d,10-May-2021 02:20:12,09-May-2021 18:20:12,33.48990,-119.32271,086.7 045.0,086.7,045.0,3.000,3.021,,14.8344,,14.8011,,14.8178,33.7916,,33.7928,33.7947,,33.7966,33.7947,6.5722,,6.9393,,6.6298,,6.9265,,,286.333,301.8313,303.5810,288.843,314.3689,303.3265,303.4538,0.8209,,4.4412,2.2913,2.9378,,0.0000,,25.0764,,25.0859,,,,,,,,,,,14.8339,14.8007,0.0012,287.591,114.220,115.148,3,14.767,33.8012,,298.78,1.131,0.386,1.46,0.050,0.27,0.24,1.17
CalCOFI,2105SH,028,,2105_028d,10-May-2021 02:20:19,09-May-2021 18:20:19,33.48990,-119.32272,086.7 045.0,086.7,045.0,4.000,4.029,,14.7842,,14.7904,,14.7873,33.7962,,33.7974,33.7935,,33.7954,33.7964,6.4910,,6.8544,,6.5453,,6.8390,,,282.791,298.1285,299.8339,285.160,310.5436,299.4602,299.6471,0.8578,,4.5752,2.3917,2.9336,,0.0000,,25.0908,,25.0874,,,,,,,,,,,14.7836,14.7898,0.0062,286.254,112.700,113.656,,,,,,,,,,,,
CalCOFI,2105SH,028,,2105_028d,10-May-2021 02:20:23,09-May-2021 18:20:23,33.48990,-119.32272,086.7 045.0,086.7,045.0,5.000,5.036,,14.6358,,14.6124,,14.6241,33.7963,,33.7975,33.7898,,33.7917,33.7946,6.3154,,6.6707,,6.3099,,6.5952,,,275.136,290.1260,291.7357,274.896,302.2761,288.6855,290.2106,0.8817,,4.6584,2.4567,2.9056,,0.0000,,25.1227,,25.1227,,,,,,,,,,,14.6351,14.6116,0.0097,283.242,109.328,109.178,,,,,,,,,,,,
CalCOFI,2105SH,028,,2105_028d,10-May-2021 02:20:26,09-May-2021 18:20:26,33.48990,-119.32272,086.7 045.0,086.7,045.0,6.000,6.043,,14.4221,,14.4180,,14.4201,33.7930,,33.7942,33.7893,,33.7912,33.7927,6.0338,,6.3762,,6.0426,,6.3183,,,262.854,277.2864,278.7426,263.238,289.0116,276.4474,277.5950,0.9486,,4.8769,2.6387,2.8712,,0.0000,,25.1659,,25.1639,,,,,,,,,,,14.4212,14.4171,0.0126,279.167,104.000,104.141,,,,,,,,,,,,
CalCOFI,2105SH,028,,2105_028d,10-May-2021 02:20:27,09-May-2021 18:20:27,33.48990,-119.32272,086.7 045.0,086.7,045.0,7.000,7.050,,14.2813,,14.2654,,14.2734,33.7950,,33.7962,33.7884,,33.7903,33.7933,6.0332,,6.3756,,6.0947,,6.3723,,,262.820,277.2508,278.7066,265.502,288.9748,278.8241,278.7654,0.9228,,4.7952,2.5685,2.8429,,0.0000,,25.1971,,25.1954,,,,,,,,,,,14.2803,14.2644,0.0154,276.218,103.697,104.717,,,,,,,,,,,,
CalCOFI,2105SH,028,,2105_028d,10-May-2021 02:20:29,09-May-2021 18:20:29,33.48990,-119.32272,086.7 045.0,086.7,045.0,8.000,8.057,,14.2705,,14.2388,,14.2547,33.7942,,33.7954,33.7942,,33.7961,33.7958,5.8910,,6.2269,,5.8799,,6.1498,,,256.624,270.7735,272.1519,256.141,282.2831,268.9973,270.5746,0.8157,,4.4218,2.2771,2.8058,,0.0000,,25.1989,,25.2056,,,,,,,,,,,14.2694,14.2376,0.0181,276.084,101.230,100.976,,,,,,,,,,,,
CalCOFI,2105SH,028,,2105_028d,10-May-2021 02:20:31,09-May-2021 18:20:31,33.48990,-119.32272,086.7 045.0,086.7,045.0,9.000,9.064,,13.9994,,13.9830,,13.9912,33.8137,,33.8149,33.7920,,33.7939,33.8044,5.6599,,5.9852,,5.7447,,6.0098,,,246.543,260.2349,261.4872,250.239,271.3956,262.8016,262.1444,0.7753,,4.2667,2.1672,2.7524,,0.0000,,25.2705,,25.2571,,,,,,,,,,,13.9981,13.9817,0.0209,269.297,96.740,98.144,,,,,,,,,,,,
CalCOFI,2105SH,028,,2105_028d,10-May-2021 02:20:33,09-May-2021 18:20:33,33.48990,-119.32273,086.7 045.0,086.7,045.0,10.000,10.072,,13.6671,,13.6662,,13.6667,33.8142,,33.8154,33.8010,,33.8029,33.8092,5.5576,,5.8782,,5.5559,,5.8142,,,242.067,255.5556,256.7521,241.996,266.5615,254.1485,255.4503,0.6727,,3.8376,1.8881,2.6989,,0.0000,,25.3398,,25.3299,,,,,,,,,,,13.6657,13.6648,0.0236,262.723,94.352,94.314,,,,,,,,,,,,
CalCOFI,2105SH,028,,2105_028d,10-May-2021 02:20:34,09-May-2021 18:20:34,33.48990,-119.32274,086.7 045.0,086.7,045.0,11.000,11.079,,13.4560,,13.4673,,13.4617,33.8247,,33.8259,33.8058,,33.8077,33.8168,5.3918,,5.7048,,5.4289,,5.6827,,,234.834,247.9943,249.1003,236.453,258.7499,248.3297,248.7150,0.5930,,3.4694,1.6713,2.6552,,0.0000,,25.3910,,25.3741,,,,,,,,,,,13.4544,13.4658,0.0262,257.878,91.150,91.787,11,13.454,,,259.24,3.299,1.618,6.56,0.119,1.08,0.72,6.40
CalCOFI,2105SH,028,,2105_028d,10-May-2021 02:20:36,09-May-2021 18:20:36,33.48990,-119.32274,086.7 045.0,086.7,045.0,12.000,12.086,,13.1841,,13.1837,,13.1839,33.8262,,33.8274,33.8130,,33.8149,33.8212,5.3175,,5.6271,,5.3936,,5.6461,,,231.585,244.5978,245.6632,234.901,255.2409,246.7005,246.1819,0.3620,,2.2303,1.0429,2.6074,,0.0000,,25.4471,,25.4370,,,,,,,,,,,13.1825,13.1821,0.0288,252.567,89.394,90.665,,,,,,,,,,,,
CalCOFI,2105SH,028,,2105_028d,10-May-2021 02:20:37,09-May-2021 18:20:37,33.48992,-119.32274,086.7 045.0,086.7,045.0,13.000,13.093,,13.1160,,13.1146,,13.1153,33.8248,,33.8260,33.8151,,33.8170,33.8215,5.2732,,5.5808,,5.3483,,5.5992,,,229.654,242.5791,243.6204,232.925,253.1555,244.6261,244.1233,0.2955,,1.8261,0.8620,2.5557,,0.0000,,25.4597,,25.4525,,,,,,,,,,,13.1142,13.1128,0.0313,251.395,88.525,89.777,,,,,,,,,,,,
CalCOFI,2105SH,028,,2105_028d,10-May-2021 02:20:39,09-May-2021 18:20:39,33.48992,-119.32274,086.7 045.0,086.7,045.0,14.000,14.100,,13.0604,,13.0600,,13.0602,33.8255,,33.8267,33.8175,,33.8194,33.8231,5.1583,,5.4607,,5.1650,,5.4093,,,224.648,237.3458,238.3246,224.939,247.7490,236.2428,237.2837,0.2699,,1.6649,0.7923,2.4972,,0.0000,,25.4714,,25.4653,,,,,,,,,,,13.0585,13.0580,0.0338,250.310,86.498,86.604,,,,,,,,,,,,
CalCOFI,2105SH,028,,2105_028d,10-May-2021 02:20:42,09-May-2021 18:20:42,33.48994,-119.32274,086.7 045.0,086.7,045.0,15.000,15.108,,12.9647,,12.9594,,12.9621,33.8332,,33.8344,33.8198,,33.8217,33.8281,4.8300,,5.1173,,4.8255,,5.0577,,,210.346,222.3945,223.1945,210.149,232.3028,220.7168,221.9557,0.2410,,1.4791,0.7137,2.4332,,0.0000,,25.4964,,25.4871,,,,,,,,,,,12.9626,12.9574,0.0363,247.959,80.838,80.745,,,,,,,,,,,,
CalCOFI,2105SH,028,,2105_028d,10-May-2021 02:20:43,09-May-2021 18:20:43,33.48994,-119.32274,086.7 045.0,086.7,045.0,16.000,16.115,,12.6051,,12.5953,,12.6002,33.8477,,33.8489,33.8255,,33.8274,33.8382,4.7191,,5.0013,,4.7986,,5.0298,,,205.500,217.3285,218.0680,208.964,227.0691,219.4729,218.7705,0.1727,,1.0241,0.5279,2.3871,,0.0000,,25.5784,,25.5630,,,,,,,,,,,12.6029,12.5932,0.0388,240.183,78.402,79.696,,,,,,,,,,,,
CalCOFI,2105SH,028,,2105_028d,10-May-2021 02:20:44,09-May-2021 18:20:44,33.48994,-119.32274,086.7 045.0,086.7,045.0,17.000,17.122,,12.4968,,12.4960,,12.4964,33.8409,,33.8421,33.8300,,33.8319,33.8370,4.6874,,4.9682,,4.7734,,5.0037,,,204.113,215.8785,216.6007,207.862,225.5711,218.3161,217.4584,0.1663,,0.9803,0.5105,2.3503,,0.0000,,25.5942,,25.5859,,,,,,,,,,,12.4945,12.4938,0.0412,238.699,77.696,79.116,,,,,,,,,,,,
CalCOFI,2105SH,028,,2105_028d,10-May-2021 02:20:46,09-May-2021 18:20:46,33.48994,-119.32274,086.7 045.0,086.7,045.0,18.000,18.129,,12.4552,,12.4558,,12.4555,33.8404,,33.8416,33.8315,,33.8334,33.8375,4.6745,,4.9547,,4.7470,,4.9763,,,203.553,215.2931,216.0083,206.712,224.9663,217.1088,216.5586,0.1624,,0.9535,0.4999,2.3081,,0.0000,,25.6019,,25.5949,,,,,,,,,,,12.4528,12.4534,0.0436,237.999,77.416,78.614,,,,,,,,,,,,
CalCOFI,2105SH,028,,2105_028d,10-May-2021 02:20:48,09-May-2021 18:20:48,33.48994,-119.32274,086.7 045.0,086.7,045.0,19.000,19.137,,12.4178,,12.4179,,12.4179,33.8411,,33.8423,33.8342,,33.8361,33.8392,4.6097,,4.8869,,4.6413,,4.8669,,,200.729,212.3409,213.0208,202.105,221.9164,212.2726,212.6467,0.1372,,0.7788,0.4314,2.2555,,0.0000,,25.6097,,25.6043,,,,,,,,,,,12.4153,12.4154,0.0460,237.284,76.284,76.803,,,,,,,,,,,,
CalCOFI,2105SH,028,,2105_028d,10-May-2021 02:20:50,09-May-2021 18:20:50,33.48995,-119.32276,086.7 045.0,086.7,045.0,20.000,20.144,,12.3470,,12.3445,,12.3458,33.8453,,33.8465,33.8339,,33.8358,33.8412,4.4458,,4.7155,,4.4792,,4.6990,,,193.587,204.8746,205.4653,195.046,214.2030,204.8624,205.1639,0.1301,,0.7290,0.4120,2.2054,,0.0000,,25.6266,,25.6183,,,,,,,,,,,12.3443,12.3419,0.0484,235.699,73.465,74.009,,,,,,,,,,,,
CalCOFI,2105SH,028,,2105_028d,10-May-2021 02:20:52,09-May-2021 18:20:52,33.48996,-119.32276,086.7 045.0,086.7,045.0,21.000,21.151,,12.1840,,12.1834,,12.1837,33.8474,,33.8486,33.8379,,33.8398,33.8442,4.2872,,4.5497,,4.3183,,4.5323,,,186.675,197.6488,198.1531,188.032,206.7380,197.4994,197.8263,0.1208,,0.6634,0.3867,2.1629,,0.0000,,25.6594,,25.6522,,,,,,,,,,,12.1813,12.1807,0.0507,232.595,70.604,71.111,,,,,,,,,,,,
CalCOFI,2105SH,028,,2105_028d,10-May-2021 02:20:53,09-May-2021 18:20:53,33.48996,-119.32276,086.7 045.0,086.7,045.0,22.000,22.158,,12.0339,,12.0363,,12.0351,33.8549,,33.8561,33.8391,,33.8410,33.8486,4.1929,,4.4510,,4.2545,,4.4662,,,182.565,193.3523,193.8051,185.248,202.2992,194.5768,194.1910,0.0978,,0.4994,0.3242,2.1249,,0.0000,,25.6938,,25.6811,,,,,,,,,,,12.0311,12.0335,0.0531,229.347,68.838,69.846,,,,,,,,,,,,
CalCOFI,2105SH,028,,2105_028d,10-May-2021 02:20:55,09-May-2021 18:20:55,33.48996,-119.32276,086.7 045.0,086.7,045.0,23.000,23.166,,11.8990,,11.9003,,11.8997,33.8598,,33.8610,33.8511,,33.8530,33.8570,4.1457,,4.4017,,4.1898,,4.3992,,,180.505,191.1987,191.6258,182.423,200.0744,191.6113,191.6186,0.0874,,0.4244,0.2959,2.0831,,0.0000,,25.7232,,25.7161,,,,,,,,,,,11.8961,11.8974,0.0554,226.580,67.873,68.592,,,,,,,,,,,,
CalCOFI,2105SH,028,,2105_028d,10-May-2021 02:20:57,09-May-2021 18:20:57,33.48996,-119.32276,086.7 045.0,086.7,045.0,24.000,24.173,,11.8787,,11.8758,,11.8773,33.8662,,33.8674,33.8601,,33.8620,33.8647,3.9592,,4.2066,,3.9073,,4.1066,,,172.384,182.7090,183.0347,170.122,191.3037,178.6982,180.8665,0.0915,,0.4540,0.3070,2.0309,,0.0000,,25.7320,,25.7278,,,,,,,,,,,11.8757,11.8728,0.0576,225.766,64.795,63.939,,,,,,,,,,,,
CalCOFI,2105SH,028,,2105_028d,10-May-2021 02:20:59,09-May-2021 18:20:59,33.48996,-119.32276,086.7 045.0,086.7,045.0,25.000,25.180,,11.7486,,11.7423,,11.7455,33.8873,,33.8885,33.8717,,33.8736,33.8811,3.6769,,3.9114,,3.6533,,3.8435,,,160.085,169.8517,170.0236,159.060,178.0207,167.0858,168.5547,0.0975,,0.4972,0.3234,1.9865,,0.0000,,25.7726,,25.7617,,,,,,,,,,,11.7454,11.7391,0.0599,221.920,60.019,59.620,,,,,,,,,,,,
CalCOFI,2105SH,028,,2105_028d,10-May-2021 02:21:00,09-May-2021 18:21:00,33.48996,-119.32276,086.7 045.0,086.7,045.0,26.000,26.187,,11.4273,,11.4221,,11.4247,33.9109,,33.9121,33.8937,,33.8956,33.9039,3.5100,,3.7369,,3.5240,,3.7096,,,152.807,162.2432,162.3242,153.416,170.1605,161.1609,161.7426,0.0914,,0.4533,0.3068,1.9379,,0.0000,,25.8505,,25.8380,,,,,,,,,,,11.4240,11.4189,0.0621,214.536,56.917,57.130,,,,,,,,,,,,
CalCOFI,2105SH,028,,2105_028d,10-May-2021 02:21:03,09-May-2021 18:21:03,33.48997,-119.32276,086.7 045.0,086.7,045.0,27.000,27.195,,11.1272,,11.1163,,11.1218,33.9253,,33.9265,33.9118,,33.9137,33.9201,3.3470,,3.5664,,3.4066,,3.5880,,,145.702,154.8157,154.8079,148.298,162.4871,155.7883,155.2981,0.0771,,0.3496,0.2679,1.8560,,0.0000,,25.9164,,25.9079,,,,,,,,,,,11.1239,11.1130,0.0642,208.286,53.931,54.874,,,,,,,,,,,,
CalCOFI,2105SH,028,,2105_028d,10-May-2021 02:21:05,09-May-2021 18:21:05,33.48997,-119.32276,086.7 045.0,086.7,045.0,28.000,28.202,,11.0335,,11.0335,,11.0335,33.9276,,33.9288,33.9180,,33.9199,33.9244,3.2676,,3.4834,,3.3139,,3.4919,,,142.242,151.1986,151.1475,144.260,158.7503,151.5494,151.3485,0.0724,,0.3154,0.2551,1.7991,,0.0000,,25.9350,,25.9276,,,,,,,,,,,11.0301,11.0300,0.0663,206.531,52.547,53.289,,,,,,,,,,,,
CalCOFI,2105SH,028,,2105_028d,10-May-2021 02:21:06,09-May-2021 18:21:06,33.48998,-119.32277,086.7 045.0,086.7,045.0,29.000,29.209,,10.9805,,10.9780,,10.9793,33.9324,,33.9336,33.9213,,33.9232,33.9284,3.2038,,3.4166,,3.2469,,3.4225,,,139.462,148.2924,148.2066,141.339,155.7479,148.4830,148.3448,0.0708,,0.3037,0.2507,1.7610,,0.0000,,25.9483,,25.9401,,,,,,,,,,,10.9770,10.9745,0.0684,205.296,51.465,52.150,,,,,,,,,,,,
CalCOFI,2105SH,028,,2105_028d,10-May-2021 02:21:08,09-May-2021 18:21:08,33.48998,-119.32276,086.7 045.0,086.7,045.0,30.000,30.216,,10.8840,,10.8832,,10.8836,33.9397,,33.9409,33.9306,,33.9325,33.9367,3.1645,,3.3755,,3.2146,,3.3891,,,137.750,146.5027,146.3955,139.932,153.8989,147.0060,146.7008,0.0709,,0.3044,0.2510,1.7271,,0.0000,,25.9712,,25.9642,,,,,,,,,,,10.8803,10.8796,0.0704,203.133,50.731,51.531,,,,,,,,,,,,
CalCOFI,2105SH,028,,2105_028d,10-May-2021 02:21:09,09-May-2021 18:21:09,33.48998,-119.32277,086.7 045.0,086.7,045.0,31.000,31.224,,10.8296,,10.8287,,10.8292,33.9436,,33.9448,33.9361,,33.9380,33.9414,3.1176,,3.3265,,3.1758,,3.3489,,,135.705,144.3648,144.2321,138.239,151.6903,145.2288,144.7305,0.0667,,0.2736,0.2396,1.6851,,0.0000,,25.9840,,25.9783,,,,,,,,,,,10.8259,10.8249,0.0725,201.944,49.922,50.851,31,10.684,,,141.20,0.391,0.626,20.49,0.220,0.46,1.76,23.74
CalCOFI,2105SH,028,,2105_028d,10-May-2021 02:21:13,09-May-2021 18:21:13,33.48998,-119.32277,086.7 045.0,086.7,045.0,32.000,32.231,,10.7703,,10.7691,,10.7697,33.9490,,33.9502,33.9430,,33.9449,33.9476,3.0112,,3.2152,,3.0577,,3.2266,,,131.073,139.5225,139.3319,133.099,146.6877,139.8330,139.5825,0.0673,,0.2780,0.2412,1.6220,,0.0000,,25.9987,,25.9942,,,,,,,,,,,10.7665,10.7652,0.0745,200.567,48.159,48.900,,,,,,,,,,,,
CalCOFI,2105SH,028,,2105_028d,10-May-2021 02:21:14,09-May-2021 18:21:14,33.48998,-119.32277,086.7 045.0,086.7,045.0,33.000,33.238,,10.6842,,10.6848,,10.6845,33.9580,,33.9592,33.9498,,33.9517,33.9555,2.9511,,3.1524,,3.0087,,3.1758,,,128.453,136.7836,136.5602,130.961,143.8581,137.5886,137.0744,0.0629,,0.2457,0.2292,1.5964,,0.0000,,26.0209,,26.0144,,,,,,,,,,,10.6803,10.6808,0.0765,198.474,47.113,48.031,,,,,,,,,,,,
CalCOFI,2105SH,028,,2105_028d,10-May-2021 02:21:16,09-May-2021 18:21:16,33.48998,-119.32277,086.7 045.0,086.7,045.0,34.000,34.246,,10.6400,,10.6478,,10.6439,33.9605,,33.9617,33.9543,,33.9562,33.9590,2.9212,,3.1211,,2.9678,,3.1334,,,127.151,135.4225,135.1828,129.182,142.4519,135.7211,135.4520,0.0687,,0.2883,0.2450,1.5773,,0.0000,,26.0306,,26.0244,,,,,,,,,,,10.6359,10.6438,0.0785,197.570,46.593,47.343,,,,,,,,,,,,
CalCOFI,2105SH,028,,2105_028d,10-May-2021 02:21:18,09-May-2021 18:21:18,33.48998,-119.32276,086.7 045.0,086.7,045.0,35.000,35.253,,10.6041,,10.6077,,10.6059,33.9631,,33.9643,33.9581,,33.9600,33.9622,2.8563,,3.0532,,2.8948,,3.0578,,,124.327,132.4702,132.1953,126.001,139.4020,132.3819,132.2886,0.0722,,0.3139,0.2545,1.5546,,0.0000,,26.0390,,26.0344,,,,,,,,,,,10.6000,10.6035,0.0805,196.800,45.524,46.139,,,,,,,,,,,,
CalCOFI,2105SH,028,,2105_028d,10-May-2021 02:21:19,09-May-2021 18:21:19,33.49000,-119.32276,086.7 045.0,086.7,045.0,36.000,36.260,,10.5415,,10.5369,,10.5392,33.9697,,33.9709,33.9630,,33.9649,33.9679,2.7881,,2.9819,,2.8484,,3.0098,,,121.353,129.3612,129.0491,123.982,136.1901,130.2624,129.6558,0.0665,,0.2722,0.2390,1.5327,,0.0000,,26.0551,,26.0506,,,,,,,,,,,10.5372,10.5327,0.0825,195.283,44.378,45.332,,,,,,,,,,,,
CalCOFI,2105SH,028,,2105_028d,10-May-2021 02:21:21,09-May-2021 18:21:21,33.49000,-119.32276,086.7 045.0,086.7,045.0,37.000,37.268,,10.4820,,10.4817,,10.4819,33.9730,,33.9742,33.9685,,33.9704,33.9723,2.7618,,2.9544,,2.8200,,2.9804,,,120.210,128.1663,127.8400,122.743,134.9556,128.9617,128.4009,0.0616,,0.2362,0.2257,1.5111,,0.0000,,26.0680,,26.0646,,,,,,,,,,,10.4777,10.4774,0.0844,194.077,43.905,44.828,,,,,,,,,,,,
CalCOFI,2105SH,028,,2105_028d,10-May-2021 02:21:24,09-May-2021 18:21:24,33.49000,-119.32275,086.7 045.0,086.7,045.0,38.000,38.275,,10.4457,,10.4449,,10.4453,33.9753,,33.9765,33.9708,,33.9727,33.9746,2.7048,,2.8948,,2.7277,,2.8848,,,117.728,125.5717,125.2142,118.723,132.2751,124.7417,124.9780,0.0652,,0.2626,0.2355,1.4832,,0.0000,,26.0762,,26.0728,,,,,,,,,,,10.4413,10.4404,0.0864,193.327,42.966,43.327,,,,,,,,,,,,
CalCOFI,2105SH,028,,2105_028d,10-May-2021 02:21:26,09-May-2021 18:21:26,33.49000,-119.32274,086.7 045.0,086.7,045.0,39.000,39.282,,10.3625,,10.3588,,10.3607,33.9838,,33.9850,33.9752,,33.9771,33.9811,2.5996,,2.7848,,2.6411,,2.7951,,,113.145,120.7806,120.3659,114.950,127.3254,120.7810,120.5735,0.0628,,0.2450,0.2290,1.4593,,0.0000,,26.0972,,26.0912,,,,,,,,,,,10.3579,10.3542,0.0883,191.345,41.222,41.874,,,,,,,,,,,,
CalCOFI,2105SH,028,,2105_028d,10-May-2021 02:21:28,09-May-2021 18:21:28,33.49000,-119.32274,086.7 045.0,086.7,045.0,40.000,40.290,,10.2525,,10.2521,,10.2523,33.9869,,33.9881,33.9819,,33.9838,33.9860,2.5595,,2.7428,,2.5883,,2.7404,,,111.400,118.9564,118.5199,112.652,125.4408,118.3686,118.4443,0.0567,,0.2001,0.2124,1.4413,,0.0000,,26.1187,,26.1148,,,,,,,,,,,10.2479,10.2474,0.0902,189.323,40.491,40.945,,,,,,,,,,,,
CalCOFI,2105SH,028,,2105_028d,10-May-2021 02:21:29,09-May-2021 18:21:29,33.49000,-119.32275,086.7 045.0,086.7,045.0,41.000,41.297,,10.2302,,10.2314,,10.2308,33.9869,,33.9881,33.9805,,33.9824,33.9853,2.4839,,2.6638,,2.5000,,2.6489,,,108.107,115.5139,115.0362,108.810,121.8844,114.3355,114.6859,0.0573,,0.2045,0.2140,1.4246,,0.0000,,26.1225,,26.1173,,,,,,,,,,,10.2254,10.2267,0.0921,188.979,39.276,39.530,,,,,,,,,,,,
CalCOFI,2105SH,028,,2105_028d,10-May-2021 02:21:31,09-May-2021 18:21:31,33.49000,-119.32276,086.7 045.0,086.7,045.0,42.000,42.304,,10.0303,,10.0305,,10.0304,33.9857,,33.9869,33.9755,,33.9774,33.9822,2.4058,,2.5821,,2.4490,,2.5961,,,104.706,111.9585,111.4383,106.587,118.2113,112.0019,111.7201,0.0544,,0.1831,0.2061,1.4004,,0.0000,,26.1556,,26.1476,,,,,,,,,,,10.0255,10.0257,0.0940,185.840,37.877,38.555,,,,,,,,,,,,
CalCOFI,2105SH,028,,2105_028d,10-May-2021 02:21:33,09-May-2021 18:21:33,33.49000,-119.32274,086.7 045.0,086.7,045.0,43.000,43.312,,9.9238,,9.9238,,9.9238,33.9812,,33.9824,33.9741,,33.9760,33.9792,2.3608,,2.5350,,2.4052,,2.5507,,,102.743,109.9063,109.3617,104.680,116.0912,110.0000,109.6809,0.0495,,0.1468,0.1928,1.3740,,0.0000,,26.1701,,26.1646,,,,,,,,,,,9.9189,9.9189,0.0959,184.479,37.080,37.777,,,,,,,,,,,,
CalCOFI,2105SH,028,,2105_028d,10-May-2021 02:21:35,09-May-2021 18:21:35,33.49000,-119.32275,086.7 045.0,086.7,045.0,44.000,44.319,,9.8534,,9.8532,,9.8533,33.9789,,33.9801,33.9726,,33.9745,33.9773,2.3295,,2.5023,,2.3825,,2.5272,,,101.382,108.4835,107.9219,103.690,114.6213,108.9607,108.4413,0.0477,,0.1334,0.1879,1.3520,,0.0000,,26.1801,,26.1753,,,,,,,,,,,9.8484,9.8482,0.0978,183.543,36.532,37.362,,,,,,,,,,,,
CalCOFI,2105SH,028,,2105_028d,10-May-2021 02:21:38,09-May-2021 18:21:38,33.49000,-119.32274,086.7 045.0,086.7,045.0,45.000,45.326,,9.8136,,9.8135,,9.8136,33.9768,,33.9780,33.9728,,33.9747,33.9764,2.3138,,2.4859,,2.3662,,2.5103,,,100.699,107.7695,107.1993,102.979,113.8837,108.2143,107.7068,0.0442,,0.1074,0.1784,1.3294,,0.0000,,26.1851,,26.1821,,,,,,,,,,,9.8085,9.8084,0.0996,183.084,36.255,37.074,,,,,,,,,,,,
CalCOFI,2105SH,028,,2105_028d,10-May-2021 02:21:39,09-May-2021 18:21:39,33.49000,-119.32274,086.7 045.0,086.7,045.0,46.000,46.334,,9.8004,,9.8002,,9.8003,33.9761,,33.9773,33.9725,,33.9744,33.9759,2.3050,,2.4767,,2.3550,,2.4987,,,100.314,107.3671,106.7920,102.490,113.4679,107.7010,107.2465,0.0471,,0.1290,0.1862,1.3182,,0.0000,,26.1869,,26.1841,,,,,,,,,,,9.7952,9.7950,0.1014,182.940,36.106,36.888,,,,,,,,,,,,
CalCOFI,2105SH,028,,2105_028d,10-May-2021 02:21:40,09-May-2021 18:21:40,33.49000,-119.32274,086.7 045.0,086.7,045.0,47.000,47.341,,9.7919,,9.7916,,9.7918,33.9774,,33.9786,33.9746,,33.9765,33.9776,2.2972,,2.4685,,2.3509,,2.4945,,,99.975,107.0127,106.4334,102.311,113.1018,107.5131,106.9733,0.0423,,0.0933,0.1732,1.3101,,0.0000,,26.1893,,26.1872,,,,,,,,,,,9.7865,9.7863,0.1033,182.727,35.977,36.817,,,,,,,,,,,,
CalCOFI,2105SH,028,,2105_028d,10-May-2021 02:21:42,09-May-2021 18:21:42,33.49000,-119.32274,086.7 045.0,086.7,045.0,48.000,48.348,,9.7872,,9.7872,,9.7872,33.9789,,33.9801,33.9766,,33.9785,33.9793,2.2881,,2.4590,,2.3444,,2.4877,,,99.578,106.5976,106.0134,102.030,112.6730,107.2181,106.6158,0.0434,,0.1015,0.1762,1.2995,,0.0000,,26.1912,,26.1895,,,,,,,,,,,9.7818,9.7817,0.1051,182.567,35.831,36.713,,,,,,,,,,,,
CalCOFI,2105SH,028,,2105_028d,10-May-2021 02:21:46,09-May-2021 18:21:46,33.49000,-119.32274,086.7 045.0,086.7,045.0,49.000,49.356,,9.7803,,9.7801,,9.7802,33.9800,,33.9812,33.9782,,33.9801,33.9807,2.2876,,2.4585,,2.3279,,2.4706,,,99.558,106.5767,105.9923,101.312,112.6514,106.4644,106.2284,0.0430,,0.0985,0.1751,1.2857,,0.0000,,26.1933,,26.1919,,,,,,,,,,,9.7747,9.7746,0.1070,182.395,35.819,36.449,,,,,,,,,,,,
CalCOFI,2105SH,028,,2105_028d,10-May-2021 02:21:48,09-May-2021 18:21:48,33.49000,-119.32274,086.7 045.0,086.7,045.0,50.000,50.363,,9.7727,,9.7726,,9.7727,33.9806,,33.9818,33.9791,,33.9810,33.9814,2.2735,,2.4437,,2.3195,,2.4619,,,98.942,105.9328,105.3406,100.943,111.9861,106.0770,105.7088,0.0418,,0.0895,0.1718,1.2813,,0.0000,,26.1950,,26.1939,,,,,,,,,,,9.7671,9.7670,0.1088,182.248,35.592,36.311,,,,,,,,,,,,
CalCOFI,2105SH,028,,2105_028d,10-May-2021 02:21:49,09-May-2021 18:21:49,33.49000,-119.32276,086.7 045.0,086.7,045.0,51.000,51.371,,9.7643,,9.7647,,9.7645,33.9814,,33.9826,33.9799,,33.9818,33.9822,2.2673,,2.4372,,2.3157,,2.4580,,,98.674,105.6526,105.0571,100.779,111.6967,105.9049,105.4810,0.0433,,0.1007,0.1759,1.2780,,0.0000,,26.1971,,26.1959,,,,,,,,,,,9.7585,9.7590,0.1106,182.074,35.489,36.246,51,9.739,,,103.58,0.092,0.360,26.06,0.060,0.00,2.11,29.89
CalCOFI,2105SH,028,,2105_028d,10-May-2021 02:21:51,09-May-2021 18:21:51,33.49000,-119.32276,086.7 045.0,086.7,045.0,52.000,52.378,,9.7564,,9.7564,,9.7564,33.9817,,33.9829,33.9805,,33.9824,33.9827,2.2614,,2.4311,,2.3061,,2.4481,,,98.417,105.3839,104.7852,100.361,111.4191,105.4661,105.1257,0.0405,,0.0798,0.1683,1.2743,,0.0000,,26.1987,,26.1978,,,,,,,,,,,9.7505,9.7505,0.1125,181.946,35.390,36.089,,,,,,,,,,,,
CalCOFI,2105SH,028,,2105_028d,10-May-2021 02:21:53,09-May-2021 18:21:53,33.49000,-119.32276,086.7 045.0,086.7,045.0,53.000,53.385,,9.7519,,9.7512,,9.7516,33.9826,,33.9838,33.9815,,33.9834,33.9836,2.2597,,2.4293,,2.2989,,2.4406,,,98.340,105.3034,104.7038,100.048,111.3360,105.1375,104.9207,0.0413,,0.0858,0.1705,1.2717,,0.0000,,26.2001,,26.1994,,,,,,,,,,,9.7460,9.7452,0.1143,181.829,35.360,35.973,,,,,,,,,,,,
CalCOFI,2105SH,028,,2105_028d,10-May-2021 02:21:54,09-May-2021 18:21:54,33.49000,-119.32276,086.7 045.0,086.7,045.0,54.000,54.393,,9.7457,,9.7457,,9.7457,33.9836,,33.9848,33.9826,,33.9845,33.9847,2.2486,,2.4177,,2.2948,,2.4364,,,97.858,104.7996,104.1938,99.869,110.8154,104.9496,104.5717,0.0405,,0.0798,0.1683,1.2698,,0.0000,,26.2020,,26.2012,,,,,,,,,,,9.7396,9.7396,0.1161,181.676,35.182,35.904,,,,,,,,,,,,
CalCOFI,2105SH,028,,2105_028d,10-May-2021 02:21:57,09-May-2021 18:21:57,33.49001,-119.32276,086.7 045.0,086.7,045.0,55.000,55.400,,9.7424,,9.7421,,9.7423,33.9838,,33.9850,33.9833,,33.9852,33.9851,2.2443,,2.4132,,2.2886,,2.4299,,,97.673,104.6062,103.9981,99.599,110.6156,104.6661,104.3321,0.0417,,0.0888,0.1716,1.2655,,0.0000,,26.2027,,26.2024,,,,,,,,,,,9.7362,9.7359,0.1181,181.626,35.113,35.805,,,,,,,,,,,,
CalCOFI,2105SH,028,,2105_028d,10-May-2021 02:22:01,09-May-2021 18:22:01,33.49002,-119.32276,086.7 045.0,086.7,045.0,56.000,56.408,,9.7313,,9.7308,,9.7311,33.9849,,33.9861,33.9843,,33.9862,33.9862,2.2402,,2.4089,,2.2720,,2.4127,,,97.492,104.4169,103.8066,98.877,110.4201,103.9082,103.8574,0.0416,,0.0880,0.1713,1.2603,,0.0000,,26.2054,,26.2050,,,,,,,,,,,9.7250,9.7245,0.1201,181.393,35.040,35.537,,,,,,,,,,,,
CalCOFI,2105SH,028,,2105_028d,10-May-2021 02:22:01,09-May-2021 18:22:01,33.49002,-119.32276,086.7 045.0,086.7,045.0,57.000,57.415,,9.7243,,9.7233,,9.7238,33.9855,,33.9867,33.9847,,33.9866,33.9867,2.2266,,2.3947,,2.2680,,2.4086,,,96.898,103.7960,103.1783,98.704,109.7786,103.7266,103.4525,0.0406,,0.0806,0.1686,1.2589,,0.0000,,26.2071,,26.2066,,,,,,,,,,,9.7179,9.7169,0.1219,181.254,34.821,35.469,,,,,,,,,,,,